Hourly Data Report for October 30, 2014

All times are specified in Local Standard Time (LST). Add 1 hour to adjust for Daylight Saving Time where and when it is observed.

FREDERICTON
NEW BRUNSWICK

45°52'08.000" N
66°32'14.000" W
20.70 m
8101505
71700
YFC

Download Data

Hourly Data (October 2014)
Hourly Data Report for October 30, 2014
Temp Definition
°C
Dew Point Temp Definition
°C
Rel Hum Definition
%
Wind Dir Definition
10's deg

Wind Spd Definition
km/h
Visibility Definition
km
Stn Press Definition
kPa
Hmdx Definition


Wind Chill Definition


Weather Definition


TIME
00:00 Legend Double Dagger 10.6 9.7 94 29 13 9.7 100.37     Moderate Rain,Fog
01:00 Legend Double Dagger 9.8 8.5 92 24 13 16.1 100.37     LegendNANA
02:00 Legend Double Dagger 9.5 7.9 90 25 11 16.1 100.40     LegendNANA
03:00 Legend Double Dagger 9.0 7.3 89 24 11 16.1 100.43     LegendNANA
04:00 Legend Double Dagger 7.0 6.4 96 22 8 16.1 100.47     LegendNANA
05:00 Legend Double Dagger 5.2 4.8 97 21 11 16.1 100.49     LegendNANA
06:00 Legend Double Dagger 4.2 4.0 99 21 13 16.1 100.54     LegendNANA
07:00 Legend Double Dagger 3.2 3.2 100 22 13 16.1 100.60     LegendNANA
08:00 Legend Double Dagger 4.8 4.5 98 21 11 16.1 100.68     LegendNANA
09:00 Legend Double Dagger 7.2 5.5 89 21 8 16.1 100.74     LegendNANA
10:00 Legend Double Dagger 9.2 5.4 77 27 11 16.1 100.75     LegendNANA
11:00 Legend Double Dagger 10.6 5.4 70 33 18 16.1 100.72     LegendNANA
12:00 Legend Double Dagger 10.9 3.9 62 29 15 16.1 100.73     LegendNANA
13:00 Legend Double Dagger 10.2 3.4 62 29 13 16.1 100.69     LegendNANA
14:00 Legend Double Dagger 11.6 3.5 57 24 9 16.1 100.70     LegendNANA
15:00 Legend Double Dagger 11.8 3.0 55 26 9 16.1 100.72     LegendNANA
16:00 Legend Double Dagger 10.2 3.6 63 29 9 16.1 100.80     LegendNANA
17:00 Legend Double Dagger 9.6 3.2 64 29 5 16.1 100.84     LegendNANA
18:00 Legend Double Dagger 6.7 5.3 91 26 5 16.1 100.91     LegendNANA
19:00 Legend Double Dagger 7.9 3.6 74 30 4 16.1 100.95     LegendNANA
20:00 Legend Double Dagger 7.6 4.9 83 32 5 16.1 101.00     LegendNANA
21:00 Legend Double Dagger 7.7 3.5 75 33 11 16.1 101.06     LegendNANA
22:00 Legend Double Dagger 7.3 1.2 65 33 11 16.1 101.11     LegendNANA
23:00 Legend Double Dagger 6.5 1.0 68 32 8 16.1 101.12     LegendNANA

Notes on Data Quality.

Legend

  • E = Estimated
  • M = Missing
  • NA = Not Available
  • ‡ = Partner data that is not subject to review by the National Climate Archives
Date modified: